Morris, MN

5:28 PM CST on November 23, 2017 (GMT -0600)
Morris Municipal

Weather History for KMOX - October, 2012

Change the Weather History Date:

Saturday, October 20, 2012

  Actual Average Record
Temperature  
Mean Temperature 43 °F -  
Max Temperature 51 °F 53 °F 80 °F (2003)
Min Temperature 35 °F 33 °F 19 °F (2011)
Degree Days  
Heating Degree Days 22    
Moisture  
Dew Point 42 °F    
Average Humidity 91    
Maximum Humidity 100    
Minimum Humidity 76    
Precipitation  
Precipitation 0.00 in - - ()
Sea Level Pressure  
Sea Level Pressure 29.72 in    
Wind  
Wind Speed 7 mph (SSE)    
Max Wind Speed 17 mph    
Max Gust Speed 22 mph    
Visibility 8 miles    
Events Fog    
Averages and records for this station are not official NWS values.
T = Trace of Precipitation, MM = Missing Value Source: NWS Daily Summary

Daily Weather History Graph

Daily Weather History Graph

Search for Another Location

Airport or City:

Trip Planner

Search our weather history database for the weather conditions in past years. The results will help you decide how hot, cold, wet, or windy it might be!

Date:

Astronomy

Oct. 20, 2012 Rise Set
Actual Time 7:47 AM CDT 6:28 PM CDT
Civil Twilight 7:17 AM CDT 6:58 PM CDT
Nautical Twilight 6:42 AM CDT 7:33 PM CDT
Astronomical Twilight 6:08 AM CDT 8:07 PM CDT
Moon 1:33 PM CDT (10/20) 11:07 PM CDT (10/20)
Length of Visible Light 11h 41m
Length of Day
10h 41m
Waxing Crescent, 34% of the Moon is Illuminated
Oct 20
Waxing Crescent
Oct 21
First Quarter
Oct 29
Full
Nov 6
Last Quarter
Nov 13
New

Hourly Weather History & Observations

Time (CDT) Temp. Windchill Dew Point Humidity Pressure Visibility Wind Dir Wind Speed Gust Speed Precip Events Conditions
12:10 AM 41.0 °F 38.0 °F 39.2 °F 93% 29.74 in 10.0 mi NW 4.6 mph - N/A   Overcast
12:30 AM 41.0 °F 37.1 °F 39.2 °F 93% 29.74 in 7.0 mi WNW 5.8 mph - N/A   Unknown
12:49 AM 41.0 °F - 39.2 °F 93% 29.74 in 7.0 mi North - - N/A   Overcast
1:10 AM 41.0 °F - 39.2 °F 93% 29.73 in 7.0 mi Calm Calm - N/A   Overcast
1:30 AM 41.0 °F 39.0 °F 39.2 °F 93% 29.73 in 7.0 mi WNW 3.5 mph - N/A   Overcast
1:50 AM 41.0 °F 39.0 °F 39.2 °F 93% 29.74 in 7.0 mi NW 3.5 mph - N/A   Overcast
2:10 AM 41.0 °F 38.0 °F 39.2 °F 93% 29.74 in 7.0 mi WNW 4.6 mph - N/A   Overcast
2:30 AM 41.0 °F 39.0 °F 39.2 °F 93% 29.74 in 7.0 mi WNW 3.5 mph - N/A   Overcast
2:50 AM 41.0 °F 39.0 °F 39.2 °F 93% 29.75 in 7.0 mi West 3.5 mph - N/A   Overcast
3:10 AM 41.0 °F 38.0 °F 39.2 °F 93% 29.74 in 7.0 mi West 4.6 mph - N/A   Overcast
3:30 AM 41.0 °F - 39.2 °F 93% 29.74 in 10.0 mi Calm Calm - N/A   Overcast
3:50 AM 41.0 °F - 39.2 °F 93% 29.73 in 10.0 mi Calm Calm - N/A   Overcast
4:10 AM 41.0 °F - 39.2 °F 93% 29.73 in 10.0 mi Calm Calm - N/A   Overcast
4:30 AM 41.0 °F - 39.2 °F 93% 29.73 in 10.0 mi Calm Calm - N/A   Overcast
4:50 AM 41.0 °F - 39.2 °F 93% 29.73 in 10.0 mi Calm Calm - N/A   Overcast
5:10 AM 41.0 °F - 39.2 °F 93% 29.73 in 10.0 mi Calm Calm - N/A   Overcast
5:30 AM 41.0 °F - 39.2 °F 93% 29.73 in 10.0 mi Calm Calm - N/A   Overcast
5:50 AM 41.0 °F - 39.2 °F 93% 29.74 in 10.0 mi Calm Calm - N/A   Overcast
6:10 AM 39.2 °F 37.0 °F 39.2 °F 100% 29.74 in 10.0 mi SSE 3.5 mph - N/A   Mostly Cloudy
6:30 AM 39.2 °F - 39.2 °F 100% 29.73 in 7.0 mi Calm Calm - N/A   Mostly Cloudy
6:50 AM 37.4 °F 34.9 °F 35.6 °F 93% 29.74 in 0.5 mi South 3.5 mph - N/A Fog Fog
7:10 AM 37.4 °F 32.8 °F 35.6 °F 93% 29.74 in 0.2 mi South 5.8 mph - N/A Fog Fog
7:30 AM 35.6 °F 30.7 °F 35.6 °F 100% 29.75 in 0.5 mi South 5.8 mph - N/A Fog Fog
7:50 AM 35.6 °F 32.8 °F 35.6 °F 100% 29.75 in 0.2 mi South 3.5 mph - N/A Fog Fog
8:10 AM 35.6 °F 32.8 °F 35.6 °F 100% 29.75 in 0.2 mi South 3.5 mph - N/A Fog Fog
8:30 AM 37.4 °F 33.8 °F 35.6 °F 93% 29.76 in 0.2 mi South 4.6 mph - N/A Fog Fog
8:50 AM 37.4 °F 34.9 °F 37.4 °F 100% 29.76 in 0.5 mi South 3.5 mph - N/A Fog Fog
9:10 AM 39.2 °F 35.9 °F 39.2 °F 100% 29.76 in 0.2 mi South 4.6 mph - N/A Fog Fog
9:30 AM 41.0 °F 39.0 °F 39.2 °F 93% 29.76 in 5.0 mi South 3.5 mph - N/A   Overcast
9:50 AM 42.8 °F 38.6 °F 42.8 °F 100% 29.76 in 10.0 mi SSE 6.9 mph - N/A   Overcast
10:10 AM 44.6 °F 40.7 °F 42.8 °F 93% 29.76 in 10.0 mi SSE 6.9 mph - N/A   Scattered Clouds
10:30 AM 44.6 °F 38.8 °F 42.8 °F 93% 29.75 in 7.0 mi SSE 11.5 mph - N/A   Mostly Cloudy
10:50 AM 44.6 °F 39.2 °F 42.8 °F 93% 29.75 in 10.0 mi SSE 10.4 mph - N/A   Overcast
11:10 AM 44.6 °F 38.1 °F 42.8 °F 93% 29.74 in 10.0 mi South 13.8 mph - N/A   Overcast
11:30 AM 46.4 °F 40.4 °F 42.8 °F 87% 29.74 in 10.0 mi South 13.8 mph - N/A   Overcast
11:50 AM 44.6 °F 37.4 °F 42.8 °F 93% 29.75 in 10.0 mi South 16.1 mph 21.9 mph N/A   Overcast
12:10 PM 44.6 °F 37.8 °F 42.8 °F 93% 29.74 in 10.0 mi South 15.0 mph - N/A   Overcast
12:30 PM 44.6 °F 37.4 °F 42.8 °F 93% 29.73 in 10.0 mi South 16.1 mph - N/A   Overcast
12:50 PM 44.6 °F 37.8 °F 42.8 °F 93% 29.73 in 10.0 mi South 15.0 mph 19.6 mph N/A   Overcast
1:10 PM 46.4 °F 40.7 °F 42.8 °F 87% 29.71 in 10.0 mi SSE 12.7 mph - N/A   Overcast
1:30 PM 48.2 °F - 44.6 °F 87% 29.71 in 10.0 mi SSE 13.8 mph 19.6 mph N/A   Mostly Cloudy
1:50 PM 48.2 °F - 44.6 °F 87% 29.71 in 10.0 mi South 15.0 mph - N/A   Mostly Cloudy
2:10 PM 48.2 °F - 42.8 °F 82% 29.71 in 10.0 mi South 15.0 mph - N/A   Mostly Cloudy
2:30 PM 48.2 °F - 44.6 °F 87% 29.70 in 10.0 mi SE 15.0 mph - N/A   Overcast
2:50 PM 48.2 °F - 42.8 °F 82% 29.69 in 10.0 mi SE 16.1 mph 20.7 mph N/A   Mostly Cloudy
3:10 PM 50.0 °F - 44.6 °F 82% 29.69 in 10.0 mi SE 16.1 mph - N/A   Scattered Clouds
3:30 PM 51.8 °F - 44.6 °F 76% 29.69 in 10.0 mi SSE 16.1 mph - N/A   Scattered Clouds
4:10 PM 51.8 °F - 44.6 °F 76% 29.68 in 10.0 mi SSE 17.3 mph - N/A   Clear
4:30 PM 51.8 °F - 46.4 °F 82% 29.69 in 10.0 mi SSE 15.0 mph - N/A   Clear
4:50 PM 51.8 °F - 46.4 °F 82% 29.68 in 10.0 mi SE 17.3 mph - N/A   Clear
5:10 PM 51.8 °F - 46.4 °F 82% 29.68 in 10.0 mi SE 16.1 mph 20.7 mph N/A   Clear
5:30 PM 51.8 °F - 44.6 °F 76% 29.68 in 10.0 mi SE 16.1 mph - N/A   Clear
5:50 PM 50.0 °F - 44.6 °F 82% 29.68 in 10.0 mi SE 13.8 mph - N/A   Clear
6:10 PM 50.0 °F - 44.6 °F 82% 29.68 in 10.0 mi SE 16.1 mph - N/A   Clear
6:30 PM 48.2 °F - 44.6 °F 87% 29.67 in 10.0 mi SE 13.8 mph - N/A   Clear
6:50 PM 48.2 °F - 44.6 °F 87% 29.68 in 10.0 mi SE 12.7 mph - N/A   Clear
7:10 PM 48.2 °F - 44.6 °F 87% 29.69 in 10.0 mi SE 13.8 mph - N/A   Clear
7:30 PM 46.4 °F 40.7 °F 44.6 °F 93% 29.69 in 10.0 mi SE 12.7 mph - N/A   Clear
7:50 PM 46.4 °F 40.1 °F 44.6 °F 93% 29.68 in 10.0 mi SE 15.0 mph - N/A   Clear
8:10 PM 46.4 °F 40.4 °F 44.6 °F 93% 29.69 in 10.0 mi SE 13.8 mph - N/A   Clear
8:30 PM 46.4 °F 40.4 °F 44.6 °F 93% 29.70 in 10.0 mi SE 13.8 mph - N/A   Scattered Clouds
8:50 PM 46.4 °F 40.1 °F 44.6 °F 93% 29.69 in 10.0 mi SE 15.0 mph - N/A   Scattered Clouds
9:10 PM 46.4 °F 40.1 °F 44.6 °F 93% 29.70 in 10.0 mi SE 15.0 mph - N/A   Clear
9:30 PM 46.4 °F 39.8 °F 44.6 °F 93% 29.69 in 10.0 mi SE 16.1 mph - N/A   Clear
9:50 PM 46.4 °F 39.8 °F 44.6 °F 93% 29.69 in 10.0 mi SE 16.1 mph - N/A   Clear
10:10 PM 46.4 °F 40.4 °F 44.6 °F 93% 29.69 in 10.0 mi SE 13.8 mph - N/A   Clear
10:30 PM 46.4 °F 39.5 °F 44.6 °F 93% 29.69 in 10.0 mi SE 17.3 mph - N/A   Clear
10:50 PM 46.4 °F 39.5 °F 42.8 °F 87% 29.69 in 10.0 mi SE 17.3 mph - N/A   Clear
11:30 PM 44.6 °F 38.4 °F 42.8 °F 93% 29.70 in 10.0 mi SE 12.7 mph - N/A   Clear
11:50 PM 44.6 °F 38.8 °F 42.8 °F 93% 29.70 in 10.0 mi SE 11.5 mph - N/A   Clear